www.pogodaiklimat.ru

Погода и климат >> Архив погоды >> Доминиканская Республика >> Las Americas


ПОГОДА в Las Americas

  • Прогноз погоды в Las Americas
  • Монитор погоды в Las Americas
  • Климат города

АРХИВ ПОГОДЫ в Las Americas

Время (UTC), дата Ветер
(напр.,м/с)
 
Видим.   Явления Облачность Т
(С)
Тd
(С)
f
(%)
Тe
(С)
Тes
(С)
Комфортность P
(гПа)
Po
(гПа)
Тmin
(С)
Tmax
(С)
R
(мм)
R24
(мм)
S
(см)
00 19.02 С 2 16 км 5/5 540 м
[Cu med, cong]
+25.0 +22.2 84 +32 +32 очень
душно
1018.5 1019.0 +18.3 +29.0
03 19.02 СВ 2 16 км 3/3 480 м
[Cu med, cong]
+22.6 +21.4 93 +30 +30 очень
душно
1020.0 1020.0
06 19.02 СВ 2 16 км 3/3 480 м
[Cu med, cong]
+21.4 +20.4 94 +27 +27 душно 1019.4 1019.0 +18.3 +29.0
09 19.02 С 2 16 км 3/3 450 м
[Cu Sc]
+19.5 +18.7 95 +23 +23 комфорт 1018.8 1019.0
12 19.02 СВ 3 16 км 3/3 480 м
[Cu med, cong]
+20.8 +19.6 93 +26 +27 душно 1021.0 1021.0 +20.0 +29.0
15 19.02 СВ 4 16 км 6/5 600 м
[Cu Sc Ac trans]
+26.6 +21.6 74 +34 +38 очень
душно
1022.0 1022.0
18 19.02 В 4 16 км 4/4 660 м
[Cu Sc Ac trans]
+29.0 +19.1 55 +34 +40 очень
душно
1019.8 1020.0 +20.0 +30.6
21 19.02 В 5 16 км 5/4 660 м
[Cu med, cong Ac trans]
+28.5 +18.0 53 +33 +34 очень
душно
1018.7 1019.0
00 20.02 СВ 2 16 км 8/6 600 м
[Cu Sc Ac trans]
+25.5 +19.2 68 +31 +31 очень
душно
1020.0 1020.0 +20.0 +30.6
03 20.02 СВ 3 16 км 4/4 540 м
[Cu Sc]
+22.6 +20.5 88 +29 +29 очень
душно
1022.0 1022.0
06 20.02 С 2 16 км 4/4 540 м
[Cu Sc]
+21.6 +19.9 90 +27 +27 душно 1021.0 1021.0 +20.0 +30.6
09 20.02 С 3 16 км 4/4 540 м
[Cu med, cong Ac trans]
+20.6 +19.3 92 +25 +25 комфорт 1020.0 1020.0
12 20.02 С 3 5000 м мгла 5/3 480 м
[Cu Sc Ac trans]
+21.4 +20.6 95 +27 +28 душно 1021.8 1022.0 +20.6 +30.6
15 20.02 В 6 16 км {туман} 4/4 540 м
[Cu med, cong]
+27.6 +23.0 76 +37 +40 очень
душно
1022.7 1023.0
18 20.02 В 8 16 км {туман} 6/6 600 м
[Cu med, cong Ac trans]
+28.9 +21.2 63 +36 +37 очень
душно
1020.4 1020.0 +20.6 +30.0
21 20.02 СВ 7 16 км 3/3 600 м
[Cu med, cong]
+29.4 +20.6 59 +36 +37 очень
душно
1019.2 1019.0
03 21.02 С 3 16 км 4/4 480 м
[Cu med, cong]
+22.3 +19.5 84 +28 +28 душно 1022.5 1023.0
06 21.02 С 2 16 км 4/4 480 м
[Cu med, cong]
+21.6 +19.1 86 +20.6 +30.8
09 21.02 С 3 16 км 5/5 540 м
[Cu med, cong]
+20.5 +19.3 93 +25 +25 комфорт 1020.2 1020.0
12 21.02 С 2 16 км 6/4 540 м
[Cu Sc Ac trans]
+21.4 +19.7 90 +26 +27 душно 1021.5 1022.0 +20.8 +30.8
15 21.02 В 4 16 км 6/6 600 м
[Cu Sc]
+27.0 +21.0 70 +34 +38 очень
душно
1022.6 1023.0
18 21.02 ЮВ 5 8000 м осадки на расстоянии 8/6 540 м
[Cu Sc Ac trans]
+29.2 +20.4 59 +36 +38 очень
душно
1020.2 1020.0 +20.8 +31.0
21 21.02 В 6 16 км {дождь} 5/5 540 м
[Cb cap]
+28.0 +20.6 64 +35 +35 очень
душно
1019.2 1019.0 2
00 22.02 СВ 5 16 км {дождь} 8/5 540 м
[Cb cap Ac trans]
+23.4 +19.4 78 +30 +30 очень
душно
1021.5 1022.0 +20.1 +31.0
03 22.02 С 2 16 км 3/3 480 м
[Cu Sc]
+21.0 +19.3 90 +26 +26 душно 1023.2 1023.0
06 22.02 СВ 3 16 км в посл. час дождь 9/8 420 м
[Cu Sc Ac und]
+20.5 +19.7 95 +25 +25 комфорт 1022.2 1022.0 +20.1 +31.0 1
09 22.02 С 2 16 км {дождь} 9/6 480 м
[Cu Sc Ac und]
+20.0 +19.3 96 +24 +24 комфорт 1020.9 1021.0 0.5
12 22.02 СВ 2 16 км {дождь} 6/4 300 м
[Cu Sc As op]
+19.8 +18.6 93 +23 +24 комфорт 1022.6 1023.0 +21.0 +31.0 2
15 22.02 СВ 4 16 км 4/4 600 м
[Cu med, cong]
+27.0 +19.9 65 +33 +39 очень
душно
1023.3 1023.0
18 22.02 СВ 4 16 км 4/4 600 м
[Cu med, cong]
+29.5 +21.2 61 +37 +43 очень
душно
1020.8 1021.0 +19.0 +31.0
21 22.02 СВ 4 16 км 4/4 600 м
[Cu med, cong]
+29.5 +21.2 61 +37 +38 очень
душно
1020.8 1021.0 +19.0 +31.0
00 23.02 СВ 3 16 км 3/3 540 м
[Cu Sc]
+24.0 +19.7 77 +29 +29 душно 1020.4 1020.0 +19.0 +31.0
03 23.02 16 км {ливн. осадки} н/о 1022.0 1022.0 0.0
06 23.02 16 км н/о 1020.6 1021.0
09 23.02 СВ 3 16 км 6/6 480 м
[Cu med, cong]
1019.6 1020.0 +31.0
12 23.02 С 3 16 км 8/4 500 м
[Cu med, cong Ac trans]
+22.0 +20.3 90 +28 +28 душно 1020.9 1021.0 +19.4 +31.0
15 23.02 В 3 16 км 5/5 600 м
[Cu med, cong]
+27.4 +22.8 76 +36 +42 очень
душно
1021.6 1022.0
18 23.02 В 4 16 км 6/6 660 м
[Cu med, cong]
+30.0 +20.9 58 +37 +41 очень
душно
1018.7 1019.0 +19.4 +31.0
21 23.02 СВ 5 16 км 4/4 660 м
[Cu med, cong]
+28.5 +20.0 60 +35 +36 очень
душно
1017.1 1017.0
00 24.02 СВ 3 16 км 4/4 540 м
[Cu med, cong]
+23.6 +19.3 77 +29 +29 душно 1019.1 1019.0 +19.4 +31.0
03 24.02 С 2 16 км 3/3 540 м
[Cu med, cong]
+21.8 +19.4 86 +27 +27 душно 1020.0 1020.0
06 24.02 С 3 16 км 5/5 480 м
[Cu med, cong]
+20.8 +18.9 89 +25 +25 комфорт 1018.7 1019.0 +19.4 +31.0
09 24.02 С 2 16 км {гроза} 5/5 480 м
[Cb cap]
+19.7 +18.2 91 +23 +23 комфорт 1017.4 1017.0
12 24.02 С 2 16 км {гроза} 4/4 480 м
[Cb cap Ci fib]
+20.4 +18.9 91 +25 +26 комфорт 1018.6 1019.0 +19.2 +31.0
15 24.02 СВ 5 8000 м осадки на расстоянии 8/8 600 м
[Cu med, cong]
+27.4 +21.5 70 +35 +36 очень
душно
1019.8 1020.0
18 24.02 В 5 6000 м гроза, ливневой дождь 9/8 480 м
[Cb cap As op Cs]
+24.5 +22.1 86 +32 +33 очень
душно
1017.4 1017.0 +19.2 +29.0 3
21 24.02 СВ 2 8000 м гроза без осадков {дождь} 9/8 480 м
[Cb cap As op Cs]
+23.0 +21.3 90 +31 +31 очень
душно
1016.7 1017.0 4
00 25.02 штиль 0 16 км {гроза, дождь} 3/3 480 м
[Cb cap]
+21.8 +20.6 93 +28 +28 душно 1018.0 1018.0 +19.2 +29.4
03 25.02 СВ 2 16 км зарница 4/4 480 м
[Cb cap]
+20.1 +19.1 94 +24 +24 комфорт 1019.2 1019.0
06 25.02 С 2 16 км {гроза} 4/3 30 м
[Cb cap]
+20.0 +18.5 91 +19 +19 1018.4 1018.0 +19.2 +29.4
09 25.02 С 2 16 км зарница {гроза} 5/5 450 м
[Cb cap]
+19.7 +18.7 94 +23 +23 комфорт 1017.2 1017.0
12 25.02 С 4 16 км в посл. час гроза 5/4 420 м
[Cb cap Ac trans Ci fib]
+20.2 +19.4 95 +24 +25 комфорт 1018.8 1019.0 +19.3 +29.4
15 25.02 С 3 16 км 8/6 540 м
[Cu med, cong Ac und]
+26.0 +21.7 77 +33 +36 очень
душно
1020.1 1020.0
18 25.02 Ю 4 7000 м гроза, ливневой дождь 9/8 420 м
[Cb cap As op]
+23.0 +20.3 85 +30 +31 очень
душно
1017.7 1018.0 +19.3 +28.4 0.2

 

Местоположение метеостанции Las Americas (Доминиканская Республика): широта 18.43 долгота -69.66 высота над уровнем моря 18 м.

В архиве по умолчанию представлена погода в Las Americas за последнюю неделю. Архивные данные за месяц целиком и за предыдущие месяцы, начиная с января 2011 года, Вы можете получить, выбрав интересующий диапазон дат из раскрывающегося списка и нажав кнопку "Ввод!".

Внимание! Время в таблицах - всемирное. Для получения местного времени необходимо прибавить поправку, которая в Las Americas равна -4 ч.

Смотрите также архив погоды в соседних городах и на ближайших метеорологических станциях:

Погода в Santo Domingo (Доминиканская Республика) (23 км)
Погода в Sabana De La Mar (Доминиканская Республика) (75 км)
Погода в La Romana Int Airport (Доминиканская Республика) (78 км)
Погода в Punta Cana (Доминиканская Республика) (138 км)
Погода в Barahona (Доминиканская Республика) (154 км)
Погода в Santiago (Доминиканская Республика) (158 км)
Погода в Puerto Plata (Доминиканская Республика) (174 км)
Погода в Charlotte Amalie St. Thomas (Виргинские Острова) (496 км)
Погода в Punta de Maisi (Куба) (513 км)
Погода в Queen Beatrix Airport (Аруба) (661 км)

Пояснения к столбцам:

Ветер - указаны скорость ветра в м/с - средняя за 10 мин, порывы в срок и между сроками (в фигурных скобках) и направление, откуда дует ветер: С - северный, СВ - северо-восточный, В - восточный, ЮВ - юго-восточный, Ю - южный, ЮЗ - юго-западный, З - западный, СЗ - северо-западный.
Видимость - горизонтальная дальность видимости в метрах или километрах. При видимости от 1 до 10 км при отсутствии осадков обычно наблюдается дымка, при ухудшении видимости до 1 км и менее - туман. В сухую погоду видимость может ухудшаться дымом, пылью или мглою.
Явления - указаны атмосферные явления, наблюдавшиеся в срок или в последний час перед сроком; фигурными скобками обозначены явления, наблюдавшиеся между сроками (за 1-3 часа до срока); квадратными скобками обозначены град или гололедные отложения с указанием их диаметра в мм.
Облачность - указаны через наклонную черту общая и нижняя облачность в баллах и высота нижней границы облаков в метрах; квадратными скобками обозначены формы облаков: Ci - перистые, Cs - перисто-слоистые, Cc - перисто-кучевые, Ac - высококучевые, As - высокослоистые, Sc - слоисто-кучевые, Ns - слоисто-дождевые, Cu - кучевые, Cb - кучево-дождевые. Подробнее классификацию облаков см. в Атласе облаков (PDF).
T - Температура воздуха - температура, измеренная на высоте 2 м над землей.
Td - Температура точки росы - температура, при понижении до которой содержащийся в воздухе водяной пар достигнет насыщения.
f - Относительная влажность воздуха - влажноcть воздуха, измеренная на высоте 2 м над землей.
Te - Эффективная температура - температура, которую ощущает одетый по сезону человек в тени. Характеристика душности погоды. При расчете учитывается влияние влажности воздуха и скорости ветра на теплоощущения человека.
Tes - Эффективная температура на солнце - температура, которую ощущает человек, с поправкой на солнечный нагрев. Характеристика знойности погоды. Зависит от высоты солнца над горизонтом, облачности и скорости ветра. Ночью, в пасмурную погоду, а также при ветре 12 м/с и более поправка равна нулю.
P - Атмосферное давление - приведенное к уровню моря атмосферное давление.
Po - Атмосферное давление - измеренное на уровне метеостанции атмосферное давление.
Tmin - Минимальная температура - минимум температуры воздуха на высоте 2 м над землей.
Tmax - Максимальная температура - максимум температуры воздуха на высоте 2 м над землей.
R - Количество осадков - Количество выпавших осадков за период времени, мм. При наведении курсора мыши на число - период времени, за который выпало указанное количество осадков.
R24 - Количество осадков - Количество выпавших осадков за 24 часа, мм.
S - Снежный покров - Высота снежного покрова, см. При наведении курсора мыши на число - состояние снежного покрова и степень покрытия местности в баллах.